This is the latest recevied weather packets stored in our database for station/object WA4ORT. If no packets are shown the sender has not sent any weather packets the latest 10 day(s).
| Time | Temp. | Humidity | Pressure | Rain* | Wind** | Luminosity | Snow |
|---|---|---|---|---|---|---|---|
| 1777247464 | 25.56° C | - | - | 0 mm | 0 m/s | - | - |
| 1777246569 | 26.67° C | - | - | 0 mm | 0.45 m/s, 342° | - | - |
| 1777245671 | 27.22° C | - | - | 0 mm | 0 m/s | - | - |
| 1777244776 | 26.67° C | - | - | 0 mm | 0 m/s | - | - |
| 1777243882 | 26.67° C | - | - | 0 mm | 0.45 m/s, 359° | - | - |
| 1777242984 | 26.67° C | - | - | 0 mm | 0 m/s | - | - |
| 1777242089 | 27.22° C | - | - | 0 mm | 0 m/s | - | - |
| 1777241194 | 27.78° C | - | - | 0 mm | 1.34 m/s, 354° | - | - |
| 1777240296 | 27.78° C | - | - | 0 mm | 0.89 m/s, 41° | - | - |
| 1777239402 | 27.78° C | - | - | 0 mm | 1.79 m/s, 87° | - | - |
| 1777238507 | 28.33° C | - | - | 0 mm | 2.24 m/s, 284° | - | - |
| 1777237609 | 27.78° C | - | - | 0 mm | 1.79 m/s, 338° | - | - |
| 1777236714 | 27.78° C | - | - | 0 mm | 1.79 m/s, 49° | - | - |
| 1777235819 | 27.22° C | - | - | 0 mm | 4.02 m/s, 291° | - | - |
| 1777234921 | 27.78° C | - | - | 0 mm | 3.13 m/s, 350° | - | - |
| 1777234027 | 27.78° C | - | - | 0 mm | 2.68 m/s, 271° | - | - |
| 1777233132 | 27.78° C | - | - | 0 mm | 4.02 m/s, 305° | - | - |
| 1777232234 | 27.22° C | - | - | 0 mm | 3.58 m/s, 298° | - | - |
| 1777231339 | 26.67° C | - | - | 0 mm | 2.24 m/s, 359° | - | - |
| 1777230445 | 27.22° C | - | - | 0 mm | 1.34 m/s, 353° | - | - |
| 1777229546 | 27.22° C | - | - | 0 mm | 0.89 m/s, 349° | - | - |
| 1777228652 | 26.67° C | - | - | 0 mm | 3.13 m/s, 319° | - | - |
| 1777227757 | 26.11° C | - | - | 0 mm | 2.24 m/s, 291° | - | - |
| 1777226859 | 26.11° C | - | - | 0 mm | 1.34 m/s, 208° | - | - |
| 1777225964 | 26.11° C | - | - | 0 mm | 1.79 m/s, 329° | - | - |
* Rain latest hour (hover to see other rain measurements)
** Current wind speed in m/s (hover to see current wind gust speed)